Wetbulb
70.17 69.48 67.70 65.92 53.78 53.90 49.67 53.95 58.28 57.02 58.41 62.93 63.51 62.04 61.01 62.04 59.95 56.41 67.21 66.86 71.10 71.18 72.37 73.23 75.07 74.32 73.84 73.34 73.34 73.07 73.07 72.89 72.74 72.61 72.50 72.43 72.22 72.04 72.07 72.75 72.38 72.29 72.61 74.39 74.80 74.28 74.49 75.18 75.21
63.31 66.09 64.11 60.08 50.45 48.56 49.70 56.42 55.80 58.92 61.89 63.84 63.81 62.89 61.29 59.66 64.27 64.45 66.07 70.86 71.43 71.64 71.71 71.99 74.11 74.05 73.60 73.12 72.82 73.06 72.67 72.75 72.77 72.85 72.52 72.05 71.69 71.28 71.29 71.26 71.18 71.39 71.92 73.06 73.23 74.56 74.54 74.53 74.68
66.26 67.84 59.59 54.49 51.54 49.17 50.43 56.67 58.56 62.41 64.20 62.84 61.29 63.96 62.63 61.38 65.38 66.49 69.82 71.02 71.33 71.07 71.53 71.96 73.61 73.54 73.30 72.93 72.59 72.30 72.25 71.92 72.12 72.26 72.12 71.89 71.28 70.87 70.62 70.50 70.46 70.66 70.86 71.30 72.05 72.79 73.90 73.75 74.00
59.91 60.72 61.61 54.43 50.37 53.77 54.73 58.59 60.39 60.46 62.59 63.32 62.59 59.32 64.05 67.45 66.23 68.65 70.81 70.94 69.97 70.20 70.83 71.90 72.77 72.56 72.69 72.75 72.30 72.19 72.11 71.81 71.33 71.04 70.98 70.76 70.56 70.40 70.26 70.06 69.74 69.36 69.55 70.10 70.14 70.41 71.32 71.62 71.77
62.34 60.40 52.77 52.30 52.15 55.41 58.99 61.24 61.66 60.16 61.15 61.42 61.60 59.06 61.05 66.25 69.31 69.69 69.49 69.95 68.71 68.53 69.27 70.05 71.81 71.61 71.48 71.14 71.04 70.90 70.81 70.74 70.76 70.75 70.99 70.33 70.05 69.56 69.38 69.19 69.02 68.61 68.21 68.45 69.20 69.63 69.85 69.77 69.81
56.67 59.74 51.76 49.64 51.01 56.66 59.81 61.80 61.31 60.68 61.16 60.97 60.01 59.73 61.42 67.39 67.05 68.42 69.65 68.93 69.37 67.94 67.93 68.25 70.33 70.41 70.13 69.86 69.66 69.29 68.90 68.42 68.05 67.99 68.38 68.53 69.27 69.75 69.38 68.90 68.88 68.95 68.64 67.85 68.00 67.82 68.43 68.40 67.86
55.61 54.72 50.33 51.06 51.17 56.37 60.26 62.92 61.46 61.79 60.92 60.62 62.73 58.10 62.22 64.63 67.47 68.31 68.63 69.38 69.22 68.87 68.52 67.98 67.43 67.52 68.47 68.31 67.67 67.01 66.28 65.70 65.70 65.54 65.91 65.88 66.79 68.55 69.37 68.83 69.31 69.14 69.55 69.99 68.18 68.04 67.32 67.69 67.98
57.72 55.62 52.21 52.16 51.55 55.62 62.38 62.39 63.47 61.97 59.90 64.82 64.09 57.96 59.15 64.03 67.48 65.30 65.21 63.20 60.87 60.48 61.31 59.94 59.79 60.44 61.49 62.66 65.80 65.23 65.34 65.70 65.54 64.88 66.25 67.53 65.91 65.75 68.25 69.24 68.07 68.17 68.42 68.73 69.80 69.07 67.92 67.13 67.29
61.01 52.50 49.70 50.56 51.85 56.60 61.21 58.92 61.23 62.00 59.95 61.04 62.13 62.08 63.57 65.49 67.41 62.38 61.59 60.48 59.11 59.06 57.53 57.71 57.78 58.03 58.83 61.03 63.01 64.16 64.65 65.15 65.71 64.13 67.35 62.02 60.35 61.13 62.79 66.25 68.14 67.47 67.60 68.29 68.58 68.37 68.32 68.51 68.65
58.10 51.29 52.96 57.04 56.08 58.59 60.30 59.57 59.89 58.25 58.03 58.46 60.14 62.30 63.87 64.96 64.25 60.20 57.71 56.71 57.49 58.94 59.12 60.08 59.43 58.65 58.58 60.68 58.81 58.92 60.43 58.36 58.85 59.13 57.67 58.03 56.69 58.69 63.84 65.36 66.99 67.42 67.64 68.17 68.31 68.29 68.53 68.71 65.51
56.36 52.48 56.26 58.15 60.99 62.67 60.57 59.87 61.31 57.51 55.88 57.45 56.69 56.93 57.57 57.80 57.86 57.82 58.22 58.23 57.45 59.85 59.57 58.84 59.27 59.33 59.29 58.30 58.28 58.69 57.35 57.16 57.47 57.02 57.71 57.19 56.99 56.86 59.66 60.90 62.19 63.27 65.43 63.92 64.51 64.82 64.36 63.97 62.89
55.50 57.63 59.74 61.17 62.54 62.09 59.81 60.08 56.98 57.97 57.32 60.05 59.17 58.53 56.52 55.64 56.16 57.32 57.49 57.75 58.69 58.79 58.48 59.36 59.64 58.65 58.59 58.29 57.79 57.22 57.72 57.30 56.77 56.48 57.14 56.16 55.91 55.73 55.31 55.44 57.81 58.62 58.78 59.04 59.69 61.48 60.41 59.41 59.64
56.80 57.58 59.23 62.07 61.48 60.15 59.52 57.13 56.71 56.99 59.21 59.80 58.85 57.25 54.58 55.37 54.97 56.97 57.85 58.06 58.42 57.81 59.22 59.38 60.94 59.59 58.89 59.13 57.74 57.00 56.86 55.38 55.27 55.50 55.91 55.56 54.93 54.43 54.45 54.49 54.52 56.82 58.30 59.03 57.72 57.62 60.35 61.13 59.66
56.49 56.65 58.74 61.19 59.65 59.39 56.47 56.37 57.90 57.83 60.13 58.76 57.43 54.76 54.23 55.09 55.32 55.68 58.46 59.82 60.04 60.74 60.90 60.78 60.19 60.35 58.74 57.76 56.42 55.61 54.79 54.02 53.87 54.55 54.10 54.57 53.45 52.73 53.18 52.81 53.48 53.79 56.07 57.65 58.02 55.97 56.97 56.62 59.14
59.74 54.02 57.11 54.91 57.43 58.25 59.66 55.58 54.80 58.36 59.11 57.32 56.39 54.28 54.26 55.52 58.28 59.10 60.43 59.94 60.20 60.67 60.60 58.31 58.33 57.82 56.13 55.95 56.36 56.10 54.49 55.40 53.71 54.46 53.89 54.06 52.29 51.59 51.44 51.63 51.45 52.50 53.68 57.32 57.83 56.35 56.95 56.60 56.98
55.11 55.45 49.11 50.66 55.58 58.57 58.82 52.62 56.61 59.07 58.48 56.82 56.88 56.57 55.40 57.68 59.16 60.59 61.51 60.98 61.31 59.86 58.02 57.89 58.62 56.28 54.46 54.75 55.80 55.27 56.50 54.19 52.15 52.69 52.72 53.30 53.06 51.76 50.59 50.54 50.60 52.43 53.01 55.60 57.22 54.45 53.96 53.47 54.49
52.38 45.32 49.15 51.80 54.09 54.55 55.05 53.09 57.62 59.63 58.61 56.84 56.91 56.89 56.82 57.87 59.26 60.22 61.66 60.69 59.11 57.72 56.58 55.95 55.17 54.37 53.93 54.62 54.16 53.13 52.47 54.48 54.11 52.28 51.57 52.62 52.78 53.48 50.89 50.88 50.68 51.23 52.89 55.18 53.95 54.55 53.43 52.71 53.01
47.72 47.63 48.71 47.69 52.81 53.68 51.50 50.94 55.68 56.59 58.40 56.79 56.38 56.26 56.78 57.56 58.05 60.57 59.54 59.34 58.61 57.43 56.64 55.30 54.80 53.61 53.20 53.31 52.70 52.23 51.70 52.17 52.38 51.28 51.85 53.09 52.54 53.99 51.95 51.59 50.83 51.43 51.80 52.13 51.94 51.43 52.51 52.82 52.63
54.16 51.17 48.54 51.12 53.12 49.21 49.32 49.33 53.99 57.99 58.07 55.44 55.63 55.36 55.98 56.90 58.90 59.17 58.07 59.71 58.62 56.79 55.14 54.11 53.30 53.05 52.08 51.72 50.93 49.86 49.60 50.92 51.16 51.64 52.41 52.37 53.56 53.95 52.31 52.21 52.21 52.16 51.20 51.10 52.12 51.78 51.04 50.80 52.37
52.16 50.11 49.39 52.88 53.46 48.99 53.56 52.27 54.00 56.49 56.86 55.85 55.10 55.11 55.33 56.08 56.49 57.64 56.96 57.89 56.27 55.85 55.26 53.64 52.92 52.37 51.95 51.64 51.88 51.75 51.14 50.65 51.07 50.61 51.65 53.13 53.86 53.99 53.99 52.56 52.34 52.25 51.73 51.01 51.04 50.23 49.42 50.84 51.98
50.91 48.46 49.97 49.55 52.64 50.99 51.77 45.43 52.30 55.00 55.25 55.65 54.05 53.74 56.29 56.31 55.56 55.60 55.65 55.88 55.46 54.34 54.33 53.35 52.21 52.28 52.06 52.56 52.17 51.77 51.09 49.66 48.95 49.46 50.48 51.74 54.12 54.75 53.84 53.16 52.72 52.35 51.86 51.06 51.16 51.05 49.70 48.68 51.02
49.25 54.58 53.85 51.55 47.91 43.70 50.09 40.02 46.30 51.69 52.11 53.16 52.40 52.96 54.14 56.58 56.33 55.65 54.93 54.84 53.59 53.63 56.06 53.59 52.76 51.91 52.13 52.33 50.93 50.01 48.95 46.98 48.70 49.40 50.94 51.75 53.97 54.18 54.37 53.69 53.46 52.34 51.93 51.08 51.41 53.66 51.51 50.09 48.53
52.22 55.04 52.46 51.62 47.63 47.59 47.49 40.94 44.21 48.21 49.44 50.80 52.41 52.97 54.64 55.81 56.04 55.30 55.76 55.30 53.70 55.80 54.22 54.65 52.54 51.93 51.92 52.28 51.66 51.13 49.61 50.48 51.00 50.84 50.50 50.39 51.29 52.83 54.30 53.49 52.93 52.61 52.32 51.81 51.72 51.83 51.71 51.75 51.00
55.17 53.01 50.27 46.81 46.11 39.96 43.89 43.60 42.57 46.45 46.97 51.02 52.97 53.43 54.72 55.01 55.41 55.68 55.27 54.96 53.76 54.86 53.96 53.28 52.72 50.63 51.22 52.35 52.39 50.66 50.17 50.39 50.31 49.73 49.63 50.06 51.00 51.83 52.42 53.36 52.44 52.66 52.62 52.11 52.90 52.42 52.47 53.00 52.67
51.65 43.50 37.13 35.66 37.07 37.88 45.96 41.39 43.01 50.09 52.21 53.15 52.27 53.61 54.02 54.51 54.85 54.21 54.11 52.36 52.76 52.11 51.98 53.27 50.19 49.72 50.75 52.95 52.00 51.47 50.86 50.71 49.86 49.63 49.65 49.64 49.58 49.77 50.88 51.10 51.32 52.29 52.69 53.72 53.42 52.80 51.66 50.86 50.37
46.79 44.35 37.71 31.42 33.69 37.18 44.06 39.68 43.35 50.73 53.48 53.84 53.76 53.47 53.62 54.20 53.84 53.41 52.04 52.32 51.81 51.40 49.76 50.05 49.36 49.30 50.39 50.82 52.24 51.74 51.16 51.05 50.73 50.50 50.90 50.50 49.94 50.80 51.22 51.98 52.18 52.96 52.98 52.83 52.51 54.79 54.22 51.77 51.13
46.92 44.41 46.07 41.03 41.60 37.04 40.44 45.26 48.04 51.69 52.09 53.47 52.35 52.64 53.32 51.91 51.65 50.79 52.68 52.42 50.05 49.37 49.33 49.56 49.06 49.26 50.32 53.09 53.00 53.09 53.61 51.09 50.56 51.22 50.93 51.47 51.56 53.28 52.39 51.49 51.97 52.79 53.49 53.61 52.89 53.84 53.93 54.44 53.85
50.42 52.29 41.80 41.51 32.51 32.91 39.33 39.82 41.01 46.96 49.19 51.52 52.23 52.60 52.85 53.36 52.06 51.79 51.34 49.65 49.64 49.69 49.62 49.84 49.77 50.01 49.91 53.26 51.92 54.12 54.04 52.93 52.26 51.82 50.63 50.59 51.44 51.91 50.75 51.89 51.33 51.84 53.10 53.32 52.57 52.47 51.84 52.49 53.25
47.28 45.66 45.76 43.25 41.08 35.81 34.63 37.35 47.73 46.40 46.54 46.60 50.78 52.80 52.75 51.86 50.64 48.58 48.70 51.22 51.17 49.79 49.50 49.35 49.59 49.57 49.80 51.84 52.94 52.44 52.56 53.16 52.84 52.07 51.70 53.33 51.30 50.88 51.81 51.83 53.25 51.70 51.96 52.38 52.18 51.04 52.75 51.90 51.43
49.52 45.50 45.62 39.65 37.66 39.41 38.53 37.98 49.77 45.95 47.46 46.54 46.83 49.02 48.61 49.09 48.37 48.40 49.13 48.82 48.30 48.01 48.74 49.07 49.39 49.67 51.36 52.66 52.59 51.98 52.50 52.54 51.78 51.77 51.75 51.81 50.14 50.00 53.32 52.23 51.22 53.28 52.45 54.46 52.25 53.04 52.03 52.69 53.55
MSLP
1010.83 1011.08 1011.20 1012.76 1014.66 1016.75 1015.18 1012.58 1011.83 1011.73 1011.66 1012.15 1012.40 1013.25 1015.21 1015.84 1017.13 1018.62 1020.29 1019.59 1019.35 1019.56 1019.10 1019.26 1019.20 1019.21 1019.36 1019.45 1019.51 1019.52 1019.48 1019.51 1019.54 1019.51 1019.59 1019.68 1019.75 1019.74 1019.67 1019.56 1019.58 1019.60 1019.55 1019.35 1019.18 1019.26 1019.25 1019.23 1019.13
1010.04 1010.56 1011.55 1013.65 1015.32 1016.01 1014.92 1012.07 1011.61 1011.72 1012.22 1012.63 1013.60 1014.61 1015.18 1016.85 1018.10 1019.88 1019.92 1019.51 1019.37 1019.47 1019.68 1019.54 1019.48 1019.44 1019.60 1019.78 1019.85 1019.90 1019.85 1019.87 1019.91 1019.83 1019.91 1020.00 1020.10 1020.15 1020.04 1019.99 1019.92 1019.87 1019.83 1019.77 1019.49 1019.43 1019.47 1019.45 1019.37
1010.23 1010.22 1012.60 1015.22 1016.23 1015.37 1014.04 1011.89 1011.69 1011.50 1011.93 1012.44 1014.31 1015.40 1016.45 1017.83 1018.49 1019.24 1019.33 1019.11 1019.33 1019.81 1019.78 1019.72 1019.78 1019.83 1019.93 1020.03 1020.12 1020.21 1020.15 1020.19 1020.29 1020.33 1020.32 1020.29 1020.30 1020.30 1020.29 1020.24 1020.20 1020.14 1020.02 1020.00 1019.93 1019.57 1019.58 1019.68 1019.64
1010.22 1010.94 1014.21 1016.15 1016.20 1015.91 1014.68 1012.26 1011.82 1012.34 1013.53 1013.75 1014.68 1016.61 1018.12 1018.27 1018.53 1019.02 1018.95 1018.81 1019.53 1020.00 1020.16 1020.12 1020.13 1020.21 1020.28 1020.44 1020.43 1020.52 1020.55 1020.63 1020.67 1020.65 1020.62 1020.62 1020.61 1020.57 1020.57 1020.50 1020.41 1020.35 1020.28 1020.19 1020.13 1020.05 1019.89 1019.76 1019.70
1010.35 1012.82 1015.85 1017.47 1017.39 1016.78 1014.37 1012.75 1012.06 1012.71 1013.89 1014.88 1015.39 1017.82 1018.61 1019.46 1019.10 1019.03 1019.22 1019.21 1019.82 1020.27 1020.59 1020.58 1020.52 1020.49 1020.55 1020.74 1020.85 1020.87 1020.90 1020.97 1020.96 1020.90 1020.84 1020.84 1020.88 1020.76 1020.66 1020.61 1020.59 1020.49 1020.45 1020.37 1020.28 1020.13 1020.02 1019.86 1019.74
1012.09 1013.97 1017.72 1019.11 1017.04 1016.18 1014.72 1012.76 1012.89 1013.90 1014.91 1016.05 1017.01 1018.14 1019.48 1019.72 1019.39 1019.46 1019.45 1019.72 1019.84 1020.30 1020.64 1020.74 1020.90 1020.85 1020.88 1020.94 1020.96 1021.09 1021.13 1021.18 1021.21 1021.15 1021.09 1021.14 1021.00 1020.92 1020.87 1020.82 1020.75 1020.68 1020.60 1020.47 1020.45 1020.34 1020.18 1020.07 1019.84
1011.30 1014.25 1017.84 1017.19 1017.34 1015.18 1013.33 1013.21 1013.42 1014.39 1015.14 1016.22 1017.13 1018.40 1020.01 1019.90 1019.63 1019.58 1019.76 1019.80 1020.20 1020.63 1021.01 1021.22 1021.30 1021.19 1021.27 1021.24 1021.17 1021.13 1021.14 1021.16 1021.07 1021.05 1021.07 1020.96 1020.94 1020.74 1020.86 1020.84 1020.81 1020.69 1020.59 1020.51 1020.43 1020.34 1020.36 1020.17 1019.95
1011.17 1013.74 1015.63 1016.48 1015.54 1014.26 1013.48 1013.74 1014.79 1015.26 1016.74 1017.16 1018.12 1018.85 1020.03 1019.85 1019.71 1019.71 1019.96 1020.30 1020.52 1020.90 1021.16 1021.36 1021.45 1021.47 1021.46 1021.35 1021.25 1021.26 1021.13 1021.11 1020.93 1020.97 1020.93 1020.95 1020.84 1020.82 1020.62 1020.72 1020.76 1020.70 1020.57 1020.46 1020.31 1020.28 1020.32 1020.21 1020.07
1010.49 1013.59 1015.77 1015.46 1014.75 1014.01 1013.48 1014.36 1016.14 1017.39 1017.50 1018.10 1018.72 1019.28 1020.04 1020.07 1019.68 1019.89 1020.25 1020.65 1020.99 1021.37 1021.42 1021.52 1021.66 1021.69 1021.61 1021.53 1021.42 1021.40 1021.36 1021.26 1021.00 1021.02 1020.94 1021.11 1021.10 1021.01 1020.81 1020.57 1020.43 1020.39 1020.35 1020.23 1020.20 1020.29 1020.28 1020.16 1020.01
1011.23 1013.34 1014.21 1013.20 1013.05 1012.52 1013.58 1014.39 1015.99 1017.80 1018.73 1019.34 1019.73 1020.20 1020.33 1020.25 1020.10 1020.33 1020.71 1021.05 1021.33 1021.61 1021.83 1021.87 1021.92 1021.98 1021.89 1021.74 1021.74 1021.71 1021.71 1021.36 1021.18 1021.15 1021.14 1021.17 1021.06 1021.06 1020.94 1020.62 1020.49 1020.46 1020.29 1020.03 1019.93 1019.94 1019.99 1020.09 1020.13
1012.91 1013.00 1012.39 1012.23 1012.42 1012.45 1013.80 1015.19 1016.50 1018.19 1019.72 1020.39 1020.75 1021.13 1021.20 1020.86 1020.85 1020.89 1021.15 1021.35 1021.58 1021.68 1022.00 1022.11 1021.98 1021.95 1022.01 1022.05 1021.88 1021.77 1021.74 1021.63 1021.38 1021.17 1021.36 1021.33 1021.18 1021.38 1021.48 1021.34 1021.04 1020.75 1020.48 1020.15 1019.95 1019.96 1019.93 1020.08 1020.17
1014.20 1013.01 1011.88 1011.42 1011.82 1012.90 1014.49 1016.21 1018.01 1018.64 1019.99 1021.03 1021.44 1021.58 1021.67 1021.67 1021.74 1021.64 1021.77 1021.91 1021.94 1022.12 1022.18 1022.27 1022.28 1022.27 1022.32 1022.33 1022.29 1022.19 1022.00 1021.97 1021.89 1021.70 1021.73 1021.75 1021.98 1021.96 1021.99 1022.00 1021.61 1021.37 1020.89 1020.60 1020.23 1020.14 1020.09 1019.95 1019.87
1015.22 1013.75 1013.12 1012.53 1013.08 1014.18 1015.51 1017.46 1018.83 1019.86 1020.46 1020.99 1021.52 1022.07 1022.65 1022.55 1022.45 1022.29 1022.12 1022.27 1022.35 1022.53 1022.51 1022.52 1022.49 1022.67 1022.69 1022.65 1022.76 1022.62 1022.52 1022.21 1021.97 1022.07 1022.00 1021.93 1022.18 1022.26 1022.08 1021.80 1021.67 1021.46 1021.36 1021.02 1020.65 1020.31 1019.98 1019.99 1019.75
1014.82 1014.11 1013.93 1014.74 1015.54 1016.28 1017.38 1018.52 1018.94 1020.39 1020.51 1021.12 1021.51 1021.94 1022.41 1023.11 1022.76 1022.60 1022.62 1022.62 1022.73 1022.86 1022.91 1023.05 1023.22 1023.32 1023.19 1023.04 1022.94 1022.76 1022.52 1022.20 1021.93 1022.36 1022.36 1022.24 1022.31 1022.39 1022.35 1022.20 1021.94 1021.68 1021.46 1020.89 1020.70 1020.50 1020.08 1020.15 1019.77
1014.39 1014.34 1014.43 1015.18 1016.32 1016.90 1017.67 1018.76 1019.92 1020.65 1020.42 1020.53 1021.00 1021.64 1022.30 1022.35 1022.68 1022.48 1022.45 1022.75 1022.88 1023.07 1023.47 1023.47 1023.55 1023.49 1023.43 1023.38 1023.06 1022.70 1022.42 1022.04 1022.39 1022.43 1022.45 1022.36 1022.35 1022.41 1022.45 1022.34 1021.99 1021.60 1021.35 1020.98 1020.45 1020.28 1020.22 1019.98 1019.56
1014.93 1015.06 1015.46 1015.80 1015.18 1016.17 1015.88 1017.68 1018.79 1019.95 1020.81 1020.73 1020.59 1021.13 1021.39 1021.55 1022.43 1022.11 1022.52 1022.98 1023.23 1023.51 1023.77 1023.86 1023.82 1024.02 1023.92 1023.69 1023.32 1022.93 1022.46 1022.46 1022.58 1022.45 1022.49 1022.31 1022.23 1022.20 1022.24 1022.17 1021.88 1021.48 1021.10 1020.66 1020.50 1020.58 1020.39 1020.28 1019.88
1015.04 1015.20 1015.85 1016.24 1016.10 1015.60 1015.52 1016.28 1017.81 1019.69 1020.95 1020.52 1020.59 1020.56 1021.17 1021.37 1022.27 1021.88 1022.27 1022.78 1023.36 1023.56 1023.80 1024.40 1024.57 1024.59 1024.27 1024.06 1023.55 1023.16 1022.90 1022.64 1022.73 1022.68 1022.66 1022.46 1022.29 1022.11 1022.14 1022.05 1021.76 1021.39 1021.15 1020.87 1020.85 1020.66 1020.54 1020.24 1019.91
1013.86 1014.49 1015.27 1015.89 1015.40 1015.97 1016.63 1017.37 1019.65 1020.78 1019.47 1020.28 1020.18 1020.69 1021.04 1021.52 1022.09 1021.64 1022.23 1022.85 1023.40 1023.67 1023.89 1024.43 1024.53 1024.83 1024.44 1024.25 1023.85 1023.37 1023.09 1022.98 1022.88 1022.84 1022.68 1022.45 1022.26 1022.07 1021.98 1021.81 1021.54 1021.28 1021.19 1021.04 1020.85 1020.68 1020.37 1020.25 1019.98
1011.77 1013.02 1014.09 1014.37 1014.85 1016.56 1017.83 1018.52 1019.57 1018.92 1020.02 1019.91 1020.20 1020.66 1021.11 1021.47 1021.87 1021.83 1022.05 1022.85 1023.45 1023.92 1024.14 1024.47 1024.69 1024.86 1024.64 1024.47 1024.36 1023.91 1023.82 1023.42 1023.02 1022.84 1022.55 1022.43 1022.30 1022.07 1021.97 1021.78 1021.48 1021.19 1021.17 1020.95 1020.69 1020.46 1020.36 1020.17 1019.84
1010.71 1012.11 1012.73 1012.69 1014.81 1016.89 1017.59 1019.32 1020.08 1020.42 1021.09 1020.51 1020.95 1021.87 1022.07 1022.14 1022.17 1022.31 1022.28 1022.71 1023.26 1023.75 1024.10 1024.55 1024.77 1024.91 1024.70 1024.37 1024.39 1024.23 1023.98 1023.57 1023.24 1022.98 1022.65 1022.49 1022.28 1022.06 1021.82 1021.73 1021.53 1021.23 1021.05 1020.69 1020.47 1020.31 1020.31 1020.04 1019.73
1010.46 1010.92 1011.46 1012.11 1013.82 1015.92 1017.12 1019.64 1020.44 1021.03 1022.03 1021.94 1022.78 1022.96 1023.35 1022.96 1022.21 1022.29 1022.03 1022.50 1022.91 1023.32 1023.79 1024.38 1024.82 1024.94 1024.73 1024.28 1024.27 1024.22 1023.85 1023.61 1023.42 1023.11 1022.89 1022.61 1022.33 1022.05 1021.84 1021.61 1021.38 1021.13 1020.89 1020.72 1020.40 1020.13 1020.11 1020.06 1019.53
1010.97 1011.14 1011.19 1011.29 1012.74 1015.93 1016.90 1020.54 1021.23 1021.66 1022.91 1022.62 1023.01 1022.92 1023.11 1022.94 1022.04 1022.15 1022.22 1022.66 1022.66 1023.04 1023.83 1024.44 1024.69 1024.87 1024.69 1024.14 1024.31 1024.50 1024.47 1024.13 1023.76 1023.37 1023.06 1022.65 1022.22 1021.95 1021.71 1021.49 1021.24 1021.00 1020.69 1020.49 1020.18 1019.82 1019.70 1019.71 1019.55
1010.12 1010.02 1010.22 1010.68 1011.91 1015.59 1018.31 1020.24 1022.29 1022.95 1023.28 1023.18 1022.78 1022.92 1022.98 1022.73 1021.95 1022.29 1022.47 1022.76 1022.61 1023.04 1024.23 1024.55 1024.84 1024.82 1024.55 1024.27 1024.24 1024.32 1024.36 1024.02 1023.68 1023.46 1023.16 1022.83 1022.35 1021.86 1021.66 1021.34 1021.09 1020.79 1020.46 1020.15 1019.87 1019.50 1019.26 1019.19 1019.10
1009.69 1010.12 1010.83 1011.34 1013.36 1017.79 1020.25 1021.49 1022.94 1023.18 1023.33 1023.03 1022.57 1022.72 1022.50 1022.48 1022.50 1022.82 1022.61 1022.64 1023.15 1023.74 1024.27 1024.63 1024.68 1024.67 1024.30 1024.12 1024.04 1024.03 1024.09 1024.01 1023.88 1023.60 1023.35 1022.92 1022.49 1021.98 1021.68 1021.28 1021.07 1020.72 1020.36 1020.09 1019.64 1019.36 1019.19 1018.91 1018.65
1010.00 1010.89 1012.05 1013.66 1015.52 1019.58 1021.00 1022.09 1023.50 1022.74 1022.45 1022.04 1021.97 1022.39 1022.38 1022.41 1022.88 1023.00 1022.67 1023.05 1023.23 1023.79 1024.16 1024.37 1024.37 1024.36 1024.18 1024.01 1023.87 1023.79 1023.76 1023.72 1023.68 1023.53 1023.26 1023.02 1022.68 1022.25 1021.86 1021.43 1021.12 1020.76 1020.39 1019.96 1019.68 1019.47 1019.21 1018.89 1018.64
1010.65 1011.36 1013.11 1014.77 1017.28 1020.32 1021.50 1022.85 1022.98 1022.65 1022.14 1021.38 1021.48 1021.78 1022.12 1022.40 1022.48 1022.63 1022.79 1023.15 1023.37 1023.81 1024.23 1024.32 1024.22 1024.14 1024.04 1023.85 1023.69 1023.55 1023.51 1023.42 1023.31 1023.19 1022.96 1022.82 1022.60 1022.28 1021.67 1021.33 1020.97 1020.65 1020.30 1020.01 1019.74 1019.32 1019.13 1018.78 1018.54
1011.38 1012.57 1012.96 1014.73 1018.03 1020.70 1023.12 1023.48 1023.14 1022.21 1022.08 1021.87 1022.06 1022.54 1022.84 1022.58 1022.58 1022.81 1022.97 1023.34 1023.84 1024.10 1024.20 1024.30 1024.19 1024.05 1023.91 1023.73 1023.57 1023.44 1023.29 1023.11 1023.04 1022.93 1022.78 1022.57 1022.39 1021.87 1021.49 1021.31 1020.97 1020.63 1020.34 1020.00 1019.72 1019.59 1019.14 1018.91 1018.68
1012.75 1013.29 1014.14 1016.17 1019.06 1021.89 1023.53 1023.56 1022.96 1022.02 1021.66 1021.73 1021.84 1022.13 1022.50 1022.51 1022.75 1022.72 1023.29 1023.70 1023.83 1023.95 1024.22 1024.16 1023.95 1023.89 1023.75 1023.54 1023.42 1023.39 1023.12 1022.96 1022.91 1022.75 1022.61 1022.46 1022.17 1021.83 1021.66 1021.31 1020.99 1020.75 1020.42 1020.03 1019.84 1019.64 1019.35 1019.06 1018.99
1014.50 1015.16 1015.83 1017.90 1019.75 1021.32 1023.09 1023.77 1022.22 1021.80 1021.42 1021.61 1021.60 1021.70 1022.10 1022.23 1022.87 1023.03 1023.04 1023.26 1023.68 1023.93 1023.95 1024.03 1023.93 1023.82 1023.62 1023.44 1023.27 1023.31 1023.06 1022.94 1022.85 1022.69 1022.49 1022.31 1022.10 1021.90 1021.64 1021.34 1021.04 1020.91 1020.60 1020.20 1019.97 1019.64 1019.37 1019.23 1019.04
1016.00 1016.66 1016.97 1018.33 1020.40 1021.28 1022.17 1023.01 1021.86 1021.50 1021.46 1021.49 1021.70 1021.78 1021.64 1021.86 1022.47 1022.55 1022.87 1023.24 1023.62 1023.61 1023.83 1023.84 1023.82 1023.68 1023.43 1023.19 1023.13 1023.18 1022.95 1022.93 1022.77 1022.61 1022.42 1022.12 1022.10 1021.77 1021.35 1021.17 1021.06 1020.95 1020.69 1020.44 1020.18 1019.96 1019.67 1019.45 1019.32
Wind_Speed
8 9 3 5 7 8 7 8 17 20 19 21 21 22 21 16 10 4 7 15 9 9 9 12 15 16 16 15 15 14 14 13 13 13 14 14 14 14 14 13 13 13 13 12 11 8 8 7 7
1 8 5 4 6 6 5 9 16 18 24 25 21 18 18 17 16 13 6 15 14 12 9 10 16 16 16 15 15 14 13 13 12 12 13 13 12 12 12 12 12 12 12 12 11 11 9 7 5
2 4 6 5 4 4 3 10 18 17 18 13 9 14 7 4 14 6 8 16 15 12 10 13 18 17 17 16 15 13 13 13 13 12 12 11 10 10 10 10 10 11 11 11 10 9 9 7 6
2 5 6 5 8 5 6 15 20 21 21 17 20 13 7 13 3 8 13 17 16 13 11 16 18 17 17 17 16 15 14 13 11 10 10 8 7 7 7 7 7 7 8 8 8 7 6 5 5
4 5 6 5 10 6 10 9 17 16 12 14 14 13 7 8 11 13 14 14 15 12 10 10 17 17 16 15 14 14 13 12 11 10 9 7 5 3 3 3 3 4 4 5 6 6 5 5 5
6 4 7 5 18 18 8 17 21 21 21 19 17 13 6 5 10 10 13 13 14 12 9 9 15 16 15 14 13 13 12 11 10 10 9 9 8 6 3 2 1 1 1 1 2 2 2 2 2
8 6 6 9 11 7 14 9 13 19 15 12 14 9 4 3 6 10 13 13 13 10 7 6 6 11 12 11 11 10 9 8 8 8 7 7 10 3 5 2 1 3 4 3 2 1 3 4 5
6 5 12 6 7 11 11 6 14 13 6 2 2 6 7 4 4 14 14 14 13 9 7 6 5 5 4 4 7 7 7 7 6 3 5 8 6 6 7 2 1 3 4 5 7 4 4 6 8
6 6 2 5 3 5 8 6 10 11 11 7 5 6 5 2 0 11 13 12 10 7 7 6 5 3 2 3 3 3 2 3 3 3 8 8 5 6 7 5 6 6 5 4 3 3 6 9 11
5 6 11 12 17 11 12 10 11 8 12 10 11 9 4 2 4 10 10 8 6 6 6 5 5 4 3 3 4 4 3 2 4 3 4 4 5 6 12 10 9 10 10 9 7 9 9 9 3
10 5 7 12 8 17 15 16 6 16 8 8 10 9 5 8 10 12 10 7 6 6 6 7 7 7 8 6 5 4 3 4 4 6 6 4 4 5 5 5 6 5 10 4 6 4 3 2 1
13 9 10 10 14 16 9 8 8 10 8 10 10 9 6 10 7 7 7 5 7 7 6 7 7 7 7 4 4 5 5 4 4 5 7 5 4 5 4 3 5 7 4 6 4 2 5 4 2
3 6 10 10 15 18 20 16 11 15 14 12 10 9 7 5 4 3 5 6 7 6 6 6 6 6 5 6 4 5 5 4 4 4 5 5 4 4 5 5 3 4 5 4 5 4 3 4 4
3 2 4 16 15 8 16 11 6 11 13 13 11 10 8 5 5 3 2 6 7 7 7 5 8 7 7 6 6 4 4 4 4 4 5 6 5 4 4 4 5 4 4 6 4 3 3 5 4
8 2 5 18 10 11 6 6 8 9 14 16 14 13 11 10 10 5 8 9 8 5 8 8 6 7 8 7 6 5 4 4 5 4 6 6 5 5 5 4 4 4 3 5 4 3 4 5 6
1 3 4 3 2 7 11 4 16 12 11 13 16 16 14 14 8 10 10 7 6 9 8 7 9 9 8 7 6 5 5 4 3 4 4 6 6 5 4 4 4 4 5 5 6 5 4 3 4
2 3 1 5 5 3 4 8 15 10 15 14 11 13 12 15 11 10 12 9 8 8 8 9 8 7 8 8 5 6 7 4 4 3 4 4 5 6 3 4 5 5 4 4 3 3 2 4 5
5 3 3 7 6 7 5 10 9 5 14 14 12 9 15 13 10 11 10 11 7 6 9 8 5 6 7 5 5 5 5 3 3 3 3 4 4 5 5 5 6 5 4 5 4 3 3 3 4
11 5 9 8 6 7 8 18 12 19 11 12 16 11 12 10 11 12 9 11 7 7 8 6 6 2 3 3 3 3 4 5 3 3 5 7 5 6 5 4 5 5 4 4 5 3 3 3 2
10 5 9 6 11 6 7 17 7 5 6 10 11 10 8 7 10 10 8 7 6 7 8 6 5 1 2 1 3 2 2 3 1 2 5 5 6 6 5 5 5 5 5 6 4 3 2 3 2
18 4 5 9 14 14 13 8 5 4 14 19 17 14 5 6 9 9 7 6 7 8 8 7 5 2 1 3 3 4 4 3 4 4 3 3 4 5 6 5 5 6 4 4 5 4 4 3 3
7 14 15 13 3 4 4 2 8 6 11 13 11 10 11 12 10 8 7 6 6 4 8 7 5 1 2 3 2 3 2 2 3 2 3 5 4 4 5 5 6 5 4 5 4 4 4 2 4
5 9 11 15 7 7 9 8 8 7 6 10 10 10 11 7 5 7 5 5 4 7 7 6 5 2 3 3 1 1 3 3 3 4 6 4 5 3 4 5 6 6 4 5 5 6 5 2 2
7 5 12 5 6 9 10 7 4 3 5 7 5 10 7 4 10 6 6 7 7 10 9 6 5 1 2 3 4 1 3 5 5 3 4 4 4 3 5 6 5 5 5 5 5 5 4 4 2
3 5 5 7 6 4 3 10 4 10 3 11 10 6 5 10 9 5 4 6 7 8 7 6 5 1 3 5 3 1 2 4 5 3 3 5 4 3 5 4 5 4 5 5 6 5 4 3 2
6 7 4 2 3 3 9 4 4 6 11 7 10 6 8 8 7 5 7 6 5 8 6 5 4 4 3 5 4 3 1 1 2 3 3 4 2 3 5 5 5 6 5 5 4 3 3 3 3
6 8 4 4 7 7 1 3 4 6 9 3 6 7 2 7 6 6 7 6 7 5 6 5 4 3 5 5 4 5 2 2 3 5 3 2 3 4 5 6 5 6 5 5 5 4 5 4 3
10 9 8 6 4 5 4 5 6 1 6 7 7 7 8 5 7 6 6 6 6 6 5 4 2 0 3 5 4 3 5 4 4 5 5 2 3 4 5 5 5 6 6 6 5 4 4 5 4
10 10 6 7 3 4 5 2 5 5 7 8 5 5 7 6 9 8 7 5 7 6 5 4 4 4 4 3 3 4 5 5 4 4 4 3 3 5 6 5 5 5 6 6 5 4 5 5 4
11 8 6 5 2 3 5 3 5 7 6 8 7 6 5 10 10 7 8 6 8 4 6 4 1 4 4 3 4 2 5 3 3 3 3 2 2 4 5 4 5 4 5 6 7 6 5 6 6
Wind_Direction
144 171 169 66 62 75 276 89 104 93 83 75 72 75 76 56 31 70 132 148 158 93 79 88 87 85 81 78 80 81 80 79 79 78 73 69 65 64 64 62 59 56 53 49 67 92 93 74 78
177 168 62 83 107 125 264 109 102 110 108 99 86 83 63 66 91 118 164 120 96 92 88 88 83 83 82 80 77 75 74 73 74 79 83 80 72 67 63 61 59 58 57 58 63 64 66 71 62
120 225 72 57 5 133 251 106 107 103 122 100 99 46 33 67 62 97 148 103 93 83 80 84 84 82 82 81 79 75 72 68 66 67 71 76 76 71 68 65 58 55 55 53 57 57 68 52 25
116 38 56 68 271 286 302 79 102 101 88 90 125 74 77 25 71 110 107 105 98 90 84 87 85 83 81 79 78 74 70 66 68 66 64 63 68 71 72 71 66 58 56 57 57 63 65 56 27
44 58 49 12 320 314 276 114 98 87 72 80 89 99 79 53 99 110 106 99 103 95 87 84 88 85 82 79 78 76 71 65 59 52 48 45 36 51 82 85 80 66 53 52 56 57 57 44 12
68 100 72 358 300 255 225 106 105 103 107 101 86 100 77 124 92 108 110 101 95 94 83 84 88 86 86 87 85 81 75 68 58 45 35 15 356 325 338 344 3 8 70 68 46 30 29 10 350
116 99 98 269 226 212 107 104 97 88 66 100 133 102 99 76 116 122 108 110 112 108 106 107 104 105 101 97 99 98 94 84 68 44 26 16 12 3 318 288 16 330 317 302 234 255 300 308 312
103 78 137 218 211 94 96 72 76 74 86 100 343 144 138 231 63 96 97 89 82 77 89 84 62 56 106 119 112 116 125 129 112 74 24 357 7 16 18 167 251 278 294 280 275 249 263 285 291
78 82 131 252 240 182 99 99 60 58 82 63 52 79 125 268 269 115 120 113 109 114 119 106 97 96 121 160 179 147 191 189 131 71 28 30 12 354 320 252 236 244 241 241 214 241 277 288 285
63 117 163 201 220 132 115 109 122 91 90 78 85 77 79 350 71 96 89 87 86 119 109 113 92 34 347 13 4 352 293 0 34 44 18 41 15 3 6 333 286 284 266 250 240 236 236 265 293
334 13 212 252 161 129 120 95 96 127 94 125 123 117 68 90 87 95 90 83 88 94 89 71 53 38 33 26 18 6 1 347 11 2 34 36 18 22 4 3 351 328 308 273 296 288 277 251 256
356 338 7 96 105 101 76 83 65 45 98 127 124 123 105 95 92 98 98 99 71 65 88 89 76 58 29 26 26 351 345 5 6 1 36 32 45 24 19 5 351 352 342 358 355 272 255 261 245
326 315 339 60 88 77 79 73 96 98 118 126 139 101 93 95 110 135 136 118 94 79 72 102 94 69 26 34 12 347 350 4 335 46 65 62 52 30 358 348 351 2 333 320 336 354 353 264 259
287 303 13 47 29 83 103 140 93 136 134 132 124 121 129 133 175 171 189 109 89 65 59 83 63 52 26 22 1 336 337 318 347 63 50 50 51 25 12 342 330 333 328 324 292 313 0 294 290
342 100 21 24 344 93 120 132 91 159 152 156 148 150 160 177 194 160 110 108 113 97 53 53 70 46 26 355 328 312 307 315 31 99 58 56 35 18 3 320 314 296 300 283 314 316 322 327 314
207 40 111 258 62 133 103 219 147 169 186 159 164 173 172 163 177 122 113 115 105 86 80 55 43 29 2 337 324 335 356 19 56 52 43 37 18 3 342 325 315 305 313 339 331 319 312 304 300
322 104 184 293 283 174 192 147 158 150 204 171 168 165 153 136 138 131 129 110 98 97 84 63 46 17 2 349 354 4 6 43 41 50 35 3 348 326 330 308 300 314 312 305 313 319 309 308 311
160 179 169 215 234 238 292 274 99 318 225 166 169 154 143 139 159 135 111 110 119 105 95 90 69 21 359 353 352 0 354 357 15 27 21 10 339 337 338 319 306 312 320 315 310 287 303 273 281
123 141 164 234 197 83 242 265 95 210 206 167 173 152 151 148 140 129 126 117 120 103 98 109 91 360 19 353 341 353 345 322 334 19 347 4 335 340 339 340 331 327 312 278 292 266 284 294 284
44 148 201 228 142 125 105 96 157 219 175 180 131 52 71 126 133 132 133 135 123 126 117 136 128 103 345 18 318 333 293 307 317 305 349 354 345 341 338 334 326 328 325 320 307 258 275 258 256
3 333 270 228 159 189 110 50 19 31 52 81 82 92 281 275 146 146 138 150 147 143 158 137 130 111 340 339 346 338 332 341 356 338 320 314 329 342 335 343 333 320 315 312 302 292 271 266 278
258 271 283 319 235 113 319 98 29 61 64 101 131 147 214 238 165 165 142 164 138 151 114 134 114 108 290 315 2 345 302 324 294 294 292 319 329 335 331 337 330 322 314 304 285 277 258 233 268
262 328 295 301 346 117 360 72 325 17 108 149 187 223 229 251 189 125 129 156 131 91 119 119 135 221 295 358 35 323 333 311 309 321 328 328 328 311 322 335 327 320 312 302 293 304 311 259 241
345 288 287 4 98 57 9 91 288 311 198 216 214 230 238 303 121 155 158 96 79 110 118 147 142 85 359 9 326 329 341 323 326 321 352 333 321 339 323 332 332 326 331 328 304 293 307 320 310
319 7 357 11 25 92 169 59 311 326 324 213 202 206 160 122 119 228 108 99 92 110 154 156 119 65 350 349 347 37 320 315 326 345 333 336 326 327 318 331 343 338 333 341 16 14 1 339 344
341 85 106 6 55 136 10 108 227 294 319 83 132 108 124 133 174 165 118 134 106 125 145 84 98 53 18 326 330 311 86 6 332 317 308 300 296 316 313 340 347 345 353 353 357 317 342 355 12
5 16 331 89 101 80 3 227 295 278 292 126 130 104 203 178 168 165 101 84 106 124 110 114 81 44 351 325 330 314 323 356 303 317 317 351 346 318 322 343 358 347 342 345 2 340 355 18 24
65 349 23 10 51 102 66 12 331 225 226 202 192 201 179 189 163 114 111 121 148 125 138 113 91 124 298 316 338 335 336 336 340 352 323 48 343 329 342 351 347 350 334 338 345 321 317 14 30
14 11 31 102 93 120 141 251 271 359 46 61 113 118 149 193 103 123 149 137 132 155 144 120 58 351 332 349 26 14 353 351 347 337 348 69 354 345 329 321 321 355 344 337 7 12 360 18 14
50 34 14 101 291 106 116 225 357 64 66 67 55 112 135 112 149 172 151 144 146 159 116 104 29 343 319 341 0 18 4 335 344 324 17 52 2 331 342 9 357 9 22 14 12 8 29 27 40